Location: Leipzig
(51.3203°N, 12.3761°E)
Time: 22:08:56
(UTC+01:00)

ISS - Pass Details

Date: 01 December 2021
Orbit: 413 x 422 km, 51.6° (Epoch: 27 January)

Event Time Altitude Azimuth Distance (km) Brightness Sun altitude
Rises 18:31:25 0° 283° (WNW) 2,388 1.3 -21.8°
Reaches altitude 10° 18:33:32 10° 280° (W) 1,518 0.1 -22.1°
Enters shadow 18:36:27 55° 243° (WSW) 517 -3.1 -22.6°
